Hourly Data Report for April 17, 2018

KUGAARUK CLIMATE
NUNAVUT
Current Station Operator: ECCC - MSC

68°32'15.060" N
89°47'47.020" W
15.80 m
2303094
71407
NBB

Download Data

Hourly Data (April 2018)
Hourly Data Report for April 17, 2018
TIME
LST
Temp Definition
°C
Dew Point Definition
°C
Rel Hum Definition
%
Precip. Amount Definition
mm

Wind Dir Definition
10's deg

Wind Spd Definition
km/h
Visibility Definition
km
Stn Press Definition
kPa
Hmdx Definition


Wind Chill Definition


Weather Definition


00:00 -21.2 -24.4 76 0.0 23 32   102.66   -34 LegendNANA
01:00 -21.5 -24.6 76 0.0 24 38   102.66   -36 LegendNANA
02:00 -21.6 -24.6 77 0.0 24 40   102.65   -36 LegendNANA
03:00 -22.0 -25.3 74 0.0 23 38   102.73   -37 LegendNANA
04:00 -21.7 -25.2 74 0.0 23 39   102.76   -36 LegendNANA
05:00 -21.7 -25.5 71 0.0 23 29   102.82   -35 LegendNANA
06:00 -21.0 -25.0 70 0.0 23 30   102.82   -34 LegendNANA
07:00 -20.6 -24.8 69 0.0 23 28   102.83   -33 LegendNANA
08:00 -20.1 -25.0 65 0.0 23 20   102.86   -31 LegendNANA
09:00 -19.9 -24.6 66 0.0 23 25   102.88   -31 LegendNANA
10:00 -19.0 -23.3 69 0.0 24 26   102.89   -31 LegendNANA
11:00 -17.7 -21.9 70 0.0 25 30   102.88   -30 LegendNANA
12:00 -17.3 -21.9 68 0.0 24 24   102.90   -28 LegendNANA
13:00 -16.9 -21.2 69 0.0 24 28   102.91   -28 LegendNANA
14:00 -16.5 -20.9 69 0.0 24 21   102.93   -26 LegendNANA
15:00 -16.3 -20.5 70 0.0 25 33   102.90   -28 LegendNANA
16:00 -16.3 -20.2 72 0.0 23 26   102.94   -27 LegendNANA
17:00 -16.3 -20.6 69 0.0 23 20   102.93   -26 LegendNANA
18:00 -16.2 -20.6 69 0.0 21 12   102.92   -23 LegendNANA
19:00 -17.0 -20.5 74 0.0 21 18   102.93   -26 LegendNANA
20:00 -16.8 -20.6 72 0.0 21 19   102.93   -26 LegendNANA
21:00 -16.8 -20.9 71 0.0 21 18   102.87   -26 LegendNANA
22:00 -16.0 -20.4 69 0.0 20 25   102.88   -26 LegendNANA
23:00 -15.5 -20.1 68 0.0 23 17   102.84   -24 LegendNANA

Notes on Data Quality.

Legend

  • E = Estimated
  • M = Missing
  • NA = Not Available*
  • [empty] = Indicates an unobserved value
Date modified: